"SCET";"TARGET";"ELECTRON_DENSITY";"ERROR_FLAG";"ELECTRON_DENSITY_ERROR";"FREQ_FCE";"MEASURED_VALUE";"MEASURED_ITEM";"FREQ_PLASMA";"FREQ_UPPER_HYBRID";"FREQ_R_EQUALS_ZERO";"FREQ_L_EQUALS_ZERO";"ORBIT_NUMBER";"SATURN_RADIUS";"SATURN_IAU_LONGITUDE";"SATURN_SLS4_S_LONGITUDE";"SATURN_SLS4_N_LONGITUDE";"SATURN_SLS5_S_LONGITUDE";"SATURN_SLS5_N_LONGITUDE";"SATURN_LOCAL_TIME";"SATURN_KRONOGRAPHIC_LATITUDE";"SATURN_MAGNETIC_LATITUDE";"SATURN_L";"SATURN_L_OFFSET";"SATURN_SOLAR_EQUATORIAL_X";"SATURN_SOLAR_EQUATORIAL_Y";"SATURN_SOLAR_EQUATORIAL_Z";"SATURN_ALTITUDE";"ENCELADUS_ENCOUNTER_NUMBER";"ENCELADUS_RADIUS";"ENCELADUS_COROTATIONAL_X";"ENCELADUS_COROTATIONAL_Y";"ENCELADUS_COROTATIONAL_Z";"ENCELADUS_TRUE_ANOMALY";"ENCELADUS_PERIAPSIS_TIME";"JUPITER_RADIUS";"JUPITER_SYSTEMIII_LONGITUDE";"JUPITER_MAGNETIC_LATITUDE";"JUPITER_MAGNETIC_LOCAL_TIME";"JUPITER_L";"IO_PHASE";"EARTH_RADIUS";"EARTH_MAGNETIC_LATITUDE";"EARTH_LOCAL_TIME";"EARTH_L"
"[UTC]";"[0=Saturn, 1=Enceladus, 2=Jupiter, 3=Earth]";"[cm-3]";"[0=automated, 1=manual]";"[normalized density error]";"[Hz]";"[Hz]";"[0=upper hybrid frequency, 1=plasma frequency cutoff]";"[Hz]";"[Hz]";"[Hz]";"[Hz}";"[0, A, B, C, 3, 4, ... , 292, 293]";"[Rs where 1Rs=60268km]";"[degrees]";"[degrees]";"[degrees]";"[degrees]";"[degrees]";"[hours]";"[degrees]";"[degrees where offset=2293km north]";"[Rs where 1Rs=60268km]";"[Rs where 1Rs=60268km and offset=2293km north]";"[Rs where 1Rs=60268km]";"[Rs where 1Rs=60268km]";"[Rs where 1Rs=60268km]";"[km where ellipsoid a,b=60268km and c=54364km]";"[E0, E1, E2, ... , E21, E22]";"[Renc where 1Renc=252.1km]";"[Renc where 1Renc=252.1km]";"[Renc where 1Renc=252.1km]";"[Renc where 1Renc=252.1km]";"[degrees]";"[UTC]";"[Rj where 1Rj=71492km]";"[degrees]";"[degrees using JRM09 model]";"[hours using JRM09 model]";"[Rj where 1Rj=71492km]";"[degrees]";"[Re where 1Re=6378.1366km]";"[degrees]";"[hours]";"[Re where 1Re=6378.1366km]"
2010-01-26T20:00:24.686Z;0;1.5950e+01;0;     0.103;  1673.084;  35899.258; 0;  35860.250;  35899.258;  36706.547;  35033.465;125;   6.576; 124.984;;; 186.492; 348.492;  23.688;  -4.934;  -5.264;   6.625;   6.573;  -6.530;   0.534;  -0.566;;;;;;;;;;;;;;;;;;
2010-01-26T20:00:48.686Z;0;1.6820e+01;0;     0.098;  1677.368;  36861.867; 0;  36823.684;  36861.867;  37671.918;  35994.551;125;   6.573; 125.180;;; 186.689; 348.690;  23.690;  -4.934;  -5.264;   6.622;   6.569;  -6.527;   0.531;  -0.565;;;;;;;;;;;;;;;;;;
2010-01-26T20:00:56.686Z;0;1.6640e+01;0;     0.106;  1678.796;  36673.863; 0;  36635.418;  36673.863;  37484.430;  35805.637;125;   6.571; 125.246;;; 186.754; 348.755;  23.691;  -4.933;  -5.264;   6.620;   6.568;  -6.526;   0.530;  -0.565;;;;;;;;;;;;;;;;;;
2010-01-26T20:01:04.686Z;0;1.7240e+01;0;     0.100;  1680.308;  37326.625; 0;  37288.785;  37326.625;  38138.402;  36458.094;125;   6.570; 125.311;;; 186.820; 348.821;  23.691;  -4.933;  -5.264;   6.619;   6.567;  -6.524;   0.528;  -0.565;;;;;;;;;;;;;;;;;;
2010-01-26T20:01:12.686Z;0;1.7220e+01;0;     0.095;  1681.848;  37300.961; 0;  37263.027;  37300.961;  38113.438;  36431.590;125;   6.569; 125.376;;; 186.885; 348.887;  23.692;  -4.933;  -5.263;   6.618;   6.566;  -6.523;   0.527;  -0.565;;;;;;;;;;;;;;;;;;
2010-01-26T20:01:20.686Z;0;1.7750e+01;0;     0.103;  1683.416;  37866.395; 0;  37828.957;  37866.395;  38680.027;  36996.613;125;   6.568; 125.442;;; 186.951; 348.952;  23.693;  -4.933;  -5.263;   6.617;   6.564;  -6.522;   0.526;  -0.565;;;;;;;;;;;;;;;;;;
2010-01-26T20:01:28.686Z;0;1.8530e+01;0;     0.101;  1684.956;  38687.656; 0;  38650.945;  38687.656;  39502.605;  37817.648;125;   6.566; 125.507;;; 187.016; 349.018;  23.693;  -4.933;  -5.263;   6.615;   6.563;  -6.521;   0.525;  -0.565;;;;;;;;;;;;;;;;;;
2010-01-26T20:01:36.686Z;0;1.7830e+01;0;     0.104;  1686.496;  37956.109; 0;  37918.621;  37956.109;  38771.246;  37084.750;125;   6.565; 125.572;;; 187.081; 349.084;  23.694;  -4.933;  -5.263;   6.614;   6.562;  -6.520;   0.524;  -0.564;;;;;;;;;;;;;;;;;;
2010-01-26T20:01:44.686Z;0;1.7520e+01;0;     0.111;  1688.036;  37625.512; 0;  37587.625;  37625.512;  38441.121;  36753.082;125;   6.564; 125.638;;; 187.147; 349.150;  23.694;  -4.932;  -5.263;   6.613;   6.561;  -6.519;   0.522;  -0.564;;;;;;;;;;;;;;;;;;
2010-01-26T20:01:52.686Z;0;1.7480e+01;0;     0.100;  1689.604;  37579.438; 0;  37541.434;  37579.438;  38395.742;  36706.137;125;   6.563; 125.703;;; 187.212; 349.216;  23.695;  -4.932;  -5.263;   6.611;   6.559;  -6.518;   0.521;  -0.564;;;;;;;;;;;;;;;;;;
2010-01-26T20:02:00.686Z;0;1.7730e+01;0;     0.096;  1691.172;  37854.504; 0;  37816.707;  37854.504;  38671.746;  36980.574;125;   6.561; 125.768;;; 187.277; 349.281;  23.696;  -4.932;  -5.263;   6.610;   6.558;  -6.516;   0.520;  -0.564;;;;;;;;;;;;;;;;;;
2010-01-26T20:02:16.685Z;0;1.7440e+01;0;     0.110;  1694.588;  37534.520; 0;  37496.246;  37534.520;  38353.113;  36658.523;125;   6.559; 125.899;;; 187.408; 349.413;  23.697;  -4.932;  -5.263;   6.608;   6.555;  -6.514;   0.517;  -0.564;;;;;;;;;;;;;;;;;;
2010-01-26T20:02:24.685Z;0;1.7090e+01;0;     0.096;  1696.296;  37159.160; 0;  37120.422;  37159.160;  37978.258;  36281.961;125;   6.558; 125.964;;; 187.473; 349.479;  23.698;  -4.932;  -5.262;   6.606;   6.554;  -6.513;   0.516;  -0.564;;;;;;;;;;;;;;;;;;
2010-01-26T20:02:32.685Z;0;1.6160e+01;0;     0.111;  1698.004;  36137.684; 0;  36097.770;  36137.684;  36956.754;  35258.750;125;   6.556; 126.029;;; 187.538; 349.545;  23.698;  -4.931;  -5.262;   6.605;   6.553;  -6.512;   0.515;  -0.564;;;;;;;;;;;;;;;;;;
2010-01-26T20:02:40.685Z;0;1.6980e+01;0;     0.106;  1699.712;  37045.727; 0;  37006.715;  37045.727;  37866.328;  36166.613;125;   6.555; 126.095;;; 187.604; 349.611;  23.699;  -4.931;  -5.262;   6.604;   6.552;  -6.511;   0.514;  -0.563;;;;;;;;;;;;;;;;;;
2010-01-26T20:02:48.685Z;0;1.7010e+01;0;     0.102;  1701.420;  37071.848; 0;  37032.785;  37071.848;  37893.262;  36191.844;125;   6.554; 126.160;;; 187.669; 349.677;  23.700;  -4.931;  -5.262;   6.603;   6.550;  -6.509;   0.513;  -0.563;;;;;;;;;;;;;;;;;;
2010-01-26T20:02:56.685Z;0;1.7510e+01;0;     0.114;  1703.128;  37616.793; 0;  37578.219;  37616.793;  38439.430;  36736.301;125;   6.553; 126.225;;; 187.734; 349.743;  23.700;  -4.931;  -5.262;   6.601;   6.549;  -6.508;   0.511;  -0.563;;;;;;;;;;;;;;;;;;
2010-01-26T20:03:04.685Z;0;1.6750e+01;0;     0.116;  1703.100;  36794.160; 0;  36754.723;  36794.160;  37616.137;  35913.035;125;   6.551; 126.290;;; 187.799; 349.809;  23.701;  -4.931;  -5.262;   6.600;   6.548;  -6.507;   0.510;  -0.563;;;;;;;;;;;;;;;;;;
2010-01-26T20:03:12.685Z;0;1.7760e+01;0;     0.106;  1702.372;  37884.156; 0;  37845.887;  37884.156;  38706.645;  37004.273;125;   6.550; 126.356;;; 187.864; 349.874;  23.702;  -4.930;  -5.262;   6.599;   6.547;  -6.506;   0.509;  -0.563;;;;;;;;;;;;;;;;;;
2010-01-26T20:03:20.685Z;0;1.7620e+01;0;     0.111;  1701.644;  37736.152; 0;  37697.766;  37736.152;  38558.188;  36856.543;125;   6.549; 126.421;;; 187.929; 349.940;  23.702;  -4.930;  -5.262;   6.597;   6.545;  -6.505;   0.508;  -0.563;;;;;;;;;;;;;;;;;;
2010-01-26T20:03:28.685Z;0;1.6990e+01;0;     0.102;  1700.916;  37052.680; 0;  37013.617;  37052.680;  37873.848;  36172.930;125;   6.547; 126.486;;; 187.994; 350.006;  23.703;  -4.930;  -5.262;   6.596;   6.544;  -6.504;   0.507;  -0.563;;;;;;;;;;;;;;;;;;
2010-01-26T20:03:36.685Z;0;1.7110e+01;0;     0.102;  1700.188;  37187.738; 0;  37148.852;  37187.738;  38008.672;  36308.484;125;   6.546; 126.551;;; 188.059; 350.072;  23.704;  -4.930;  -5.261;   6.595;   6.543;  -6.502;   0.505;  -0.563;;;;;;;;;;;;;;;;;;
2010-01-26T20:03:44.685Z;0;1.7600e+01;0;     0.104;  1699.460;  37709.113; 0;  37670.797;  37709.113;  38530.109;  36830.652;125;   6.545; 126.617;;; 188.124; 350.138;  23.704;  -4.930;  -5.261;   6.594;   6.542;  -6.501;   0.504;  -0.562;;;;;;;;;;;;;;;;;;
2010-01-26T20:03:52.685Z;0;1.8090e+01;0;     0.103;  1698.732;  38234.461; 0;  38196.707;  38234.461;  39055.516;  37356.781;125;   6.544; 126.682;;; 188.189; 350.204;  23.705;  -4.930;  -5.261;   6.592;   6.540;  -6.500;   0.503;  -0.562;;;;;;;;;;;;;;;;;;
2010-01-26T20:04:00.685Z;0;1.6960e+01;0;     0.097;  1698.424;  37025.957; 0;  36986.980;  37025.957;  37845.941;  36147.520;125;   6.542; 126.747;;; 188.254; 350.270;  23.706;  -4.929;  -5.261;   6.591;   6.539;  -6.499;   0.502;  -0.562;;;;;;;;;;;;;;;;;;
2010-01-26T20:04:08.685Z;0;1.7530e+01;0;     0.113;  1699.684;  37634.648; 0;  37596.246;  37634.648;  38455.695;  36756.008;125;   6.541; 126.812;;; 188.319; 350.337;  23.706;  -4.929;  -5.261;   6.590;   6.538;  -6.498;   0.501;  -0.562;;;;;;;;;;;;;;;;;;
2010-01-26T20:04:16.685Z;0;1.6480e+01;0;     0.177;  1700.944;  36491.137; 0;  36451.473;  36491.137;  37311.863;  35610.922;125;   6.540; 126.878;;; 188.384; 350.403;  23.707;  -4.929;  -5.261;   6.589;   6.537;  -6.497;   0.499;  -0.562;;;;;;;;;;;;;;;;;;
2010-01-26T20:04:24.684Z;0;1.6670e+01;0;     0.084;  1702.204;  36706.383; 0;  36666.895;  36706.383;  37527.871;  35825.668;125;   6.539; 126.943;;; 188.449; 350.469;  23.708;  -4.929;  -5.261;   6.587;   6.535;  -6.495;   0.498;  -0.562;;;;;;;;;;;;;;;;;;
2010-01-26T20:04:32.684Z;0;1.7740e+01;0;     0.114;  1703.464;  37856.141; 0;  37817.793;  37856.141;  38679.117;  36975.652;125;   6.537; 127.008;;; 188.514; 350.535;  23.708;  -4.929;  -5.261;   6.586;   6.534;  -6.494;   0.497;  -0.562;;;;;;;;;;;;;;;;;;
2010-01-26T20:04:40.684Z;0;1.7450e+01;0;     0.104;  1704.752;  37549.887; 0;  37511.168;  37549.887;  38373.227;  36668.477;125;   6.536; 127.073;;; 188.579; 350.601;  23.709;  -4.928;  -5.261;   6.585;   6.533;  -6.493;   0.496;  -0.562;;;;;;;;;;;;;;;;;;
2010-01-26T20:04:48.684Z;0;1.8100e+01;0;     0.121;  1706.012;  38246.465; 0;  38208.398;  38246.465;  39070.922;  37364.910;125;   6.535; 127.139;;; 188.644; 350.667;  23.710;  -4.928;  -5.260;   6.583;   6.532;  -6.492;   0.494;  -0.561;;;;;;;;;;;;;;;;;;
2010-01-26T20:04:56.684Z;0;1.9520e+01;0;     0.113;  1707.272;  39710.039; 0;  39673.320;  39710.039;  40536.141;  38828.867;125;   6.534; 127.204;;; 188.709; 350.733;  23.710;  -4.928;  -5.260;   6.582;   6.530;  -6.491;   0.493;  -0.561;;;;;;;;;;;;;;;;;;
2010-01-26T20:05:04.684Z;0;1.7830e+01;0;     0.113;  1709.344;  37957.191; 0;  37918.684;  37957.191;  38782.984;  37073.641;125;   6.532; 127.269;;; 188.773; 350.799;  23.711;  -4.928;  -5.260;   6.581;   6.529;  -6.490;   0.492;  -0.561;;;;;;;;;;;;;;;;;;
2010-01-26T20:05:12.684Z;0;1.6710e+01;0;     0.103;  1711.752;  36747.121; 0;  36707.230;  36747.121;  37573.082;  35861.332;125;   6.531; 127.334;;; 188.838; 350.865;  23.711;  -4.928;  -5.260;   6.580;   6.528;  -6.488;   0.491;  -0.561;;;;;;;;;;;;;;;;;;
2010-01-26T20:05:20.684Z;0;1.7580e+01;0;     0.104;  1714.160;  37686.316; 0;  37647.312;  37686.316;  38514.148;  36799.988;125;   6.530; 127.400;;; 188.903; 350.932;  23.712;  -4.928;  -5.260;   6.578;   6.526;  -6.487;   0.490;  -0.561;;;;;;;;;;;;;;;;;;
2010-01-26T20:05:28.684Z;0;1.7440e+01;0;     0.146;  1716.568;  37544.758; 0;  37505.496;  37544.758;  38373.598;  36657.031;125;   6.529; 127.465;;; 188.968; 350.998;  23.713;  -4.927;  -5.260;   6.577;   6.525;  -6.486;   0.488;  -0.561;;;;;;;;;;;;;;;;;;
2010-01-26T20:05:36.684Z;0;1.8010e+01;0;     0.123;  1718.976;  38146.645; 0;  38107.895;  38146.645;  38977.074;  37258.098;125;   6.527; 127.530;;; 189.032; 351.064;  23.713;  -4.927;  -5.260;   6.576;   6.524;  -6.485;   0.487;  -0.561;;;;;;;;;;;;;;;;;;
2010-01-26T20:05:44.684Z;0;1.6750e+01;0;     0.104;  1721.384;  36794.824; 0;  36754.535;  36794.824;  37625.305;  35903.922;125;   6.526; 127.595;;; 189.097; 351.130;  23.714;  -4.927;  -5.260;   6.575;   6.523;  -6.484;   0.486;  -0.560;;;;;;;;;;;;;;;;;;
2010-01-26T20:05:52.684Z;0;1.8650e+01;0;     0.116;  1723.764;  38818.867; 0;  38780.574;  38818.867;  39652.035;  37928.270;125;   6.525; 127.660;;; 189.162; 351.196;  23.715;  -4.927;  -5.259;   6.573;   6.521;  -6.483;   0.485;  -0.560;;;;;;;;;;;;;;;;;;
2010-01-26T20:06:00.684Z;0;1.7470e+01;0;     0.113;  1726.004;  37570.797; 0;  37531.129;  37570.797;  38404.051;  36678.047;125;   6.523; 127.726;;; 189.227; 351.263;  23.715;  -4.927;  -5.259;   6.572;   6.520;  -6.481;   0.484;  -0.560;;;;;;;;;;;;;;;;;;
2010-01-26T20:06:08.684Z;0;1.7740e+01;0;     0.121;  1727.516;  37859.543; 0;  37820.109;  37859.543;  38693.730;  36966.215;125;   6.522; 127.791;;; 189.291; 351.329;  23.716;  -4.926;  -5.259;   6.571;   6.519;  -6.480;   0.482;  -0.560;;;;;;;;;;;;;;;;;;
2010-01-26T20:06:16.684Z;0;1.9270e+01;0;     0.141;  1729.056;  39459.535; 0;  39421.633;  39459.535;  40295.641;  38566.586;125;   6.521; 127.856;;; 189.356; 351.395;  23.717;  -4.926;  -5.259;   6.569;   6.518;  -6.479;   0.481;  -0.560;;;;;;;;;;;;;;;;;;
2010-01-26T20:06:24.684Z;0;1.7830e+01;0;     0.101;  1730.596;  37962.969; 0;  37923.504;  37962.969;  38798.672;  37068.074;125;   6.520; 127.921;;; 189.420; 351.462;  23.717;  -4.926;  -5.259;   6.568;   6.516;  -6.478;   0.480;  -0.560;;;;;;;;;;;;;;;;;;
2010-01-26T20:06:32.684Z;0;1.7740e+01;0;     0.103;  1732.136;  37857.891; 0;  37818.242;  37857.891;  38694.227;  36962.090;125;   6.518; 127.986;;; 189.485; 351.528;  23.718;  -4.926;  -5.259;   6.567;   6.515;  -6.477;   0.479;  -0.560;;;;;;;;;;;;;;;;;;
2010-01-26T20:06:40.684Z;0;1.8130e+01;0;     0.109;  1733.648;  38279.711; 0;  38240.434;  38279.711;  39117.082;  37383.434;125;   6.517; 128.051;;; 189.550; 351.594;  23.719;  -4.926;  -5.259;   6.566;   6.514;  -6.476;   0.478;  -0.560;;;;;;;;;;;;;;;;;;
2010-01-26T20:06:48.683Z;0;1.7540e+01;0;     0.111;  1735.188;  37647.742; 0;  37607.734;  37647.742;  38485.332;  36750.145;125;   6.516; 128.117;;; 189.614; 351.660;  23.719;  -4.926;  -5.259;   6.564;   6.513;  -6.474;   0.476;  -0.559;;;;;;;;;;;;;;;;;;
2010-01-26T20:06:56.683Z;0;1.7520e+01;0;     0.098;  1736.728;  37622.961; 0;  37582.855;  37622.961;  38461.250;  36724.520;125;   6.515; 128.182;;; 189.679; 351.727;  23.720;  -4.925;  -5.258;   6.563;   6.511;  -6.473;   0.475;  -0.559;;;;;;;;;;;;;;;;;;
2010-01-26T20:07:04.683Z;0;1.8620e+01;0;     0.095;  1738.380;  38786.586; 0;  38747.609;  38786.586;  39626.547;  37888.168;125;   6.513; 128.247;;; 189.743; 351.793;  23.721;  -4.925;  -5.258;   6.562;   6.510;  -6.472;   0.474;  -0.559;;;;;;;;;;;;;;;;;;
2010-01-26T20:07:12.683Z;0;1.7380e+01;0;     0.099;  1740.116;  37476.168; 0;  37435.746;  37476.168;  38315.914;  36575.797;125;   6.512; 128.312;;; 189.807; 351.860;  23.721;  -4.925;  -5.258;   6.560;   6.509;  -6.471;   0.473;  -0.559;;;;;;;;;;;;;;;;;;
2010-01-26T20:07:20.683Z;0;1.7450e+01;0;     0.104;  1741.824;  37550.438; 0;  37510.016;  37550.438;  38391.039;  36649.215;125;   6.511; 128.377;;; 189.872; 351.926;  23.722;  -4.925;  -5.258;   6.559;   6.508;  -6.470;   0.471;  -0.559;;;;;;;;;;;;;;;;;;
2010-01-26T20:07:28.683Z;0;1.7340e+01;0;     0.104;  1743.560;  37432.211; 0;  37391.582;  37432.211;  38273.523;  36529.965;125;   6.510; 128.442;;; 189.936; 351.992;  23.723;  -4.925;  -5.258;   6.558;   6.506;  -6.468;   0.470;  -0.559;;;;;;;;;;;;;;;;;;
2010-01-26T20:07:36.683Z;0;1.7710e+01;0;     0.092;  1745.296;  37834.656; 0;  37794.379;  37834.656;  38677.102;  36931.805;125;   6.508; 128.507;;; 190.001; 352.059;  23.723;  -4.924;  -5.258;   6.557;   6.505;  -6.467;   0.469;  -0.559;;;;;;;;;;;;;;;;;;
2010-01-26T20:07:44.683Z;0;1.8030e+01;0;     0.105;  1747.004;  38170.492; 0;  38130.492;  38170.492;  39014.000;  37266.996;125;   6.507; 128.573;;; 190.065; 352.125;  23.724;  -4.924;  -5.258;   6.555;   6.504;  -6.466;   0.468;  -0.559;;;;;;;;;;;;;;;;;;
2010-01-26T20:07:52.683Z;0;1.7440e+01;0;     0.091;  1748.740;  37538.977; 0;  37498.223;  37538.977;  38382.785;  36634.047;125;   6.506; 128.638;;; 190.130; 352.192;  23.725;  -4.924;  -5.258;   6.554;   6.502;  -6.465;   0.467;  -0.558;;;;;;;;;;;;;;;;;;
2010-01-26T20:08:00.683Z;0;1.8670e+01;0;     0.101;  1750.224;  38843.422; 0;  38803.969;  38843.422;  39688.949;  37938.727;125;   6.505; 128.703;;; 190.194; 352.258;  23.725;  -4.924;  -5.258;   6.553;   6.501;  -6.464;   0.465;  -0.558;;;;;;;;;;;;;;;;;;
2010-01-26T20:08:08.683Z;0;1.8690e+01;0;     0.114;  1750.868;  38865.109; 0;  38825.652;  38865.109;  39710.953;  37960.086;125;   6.503; 128.768;;; 190.258; 352.325;  23.726;  -4.924;  -5.257;   6.552;   6.500;  -6.463;   0.464;  -0.558;;;;;;;;;;;;;;;;;;
2010-01-26T20:08:16.683Z;0;1.7360e+01;0;     0.096;  1751.512;  37456.328; 0;  37415.355;  37456.328;  38301.359;  36549.848;125;   6.502; 128.833;;; 190.322; 352.391;  23.727;  -4.923;  -5.257;   6.550;   6.499;  -6.461;   0.463;  -0.558;;;;;;;;;;;;;;;;;;
2010-01-26T20:08:24.683Z;0;1.7430e+01;0;     0.108;  1752.184;  37529.332; 0;  37488.406;  37529.332;  38374.734;  36622.551;125;   6.501; 128.898;;; 190.387; 352.457;  23.727;  -4.923;  -5.257;   6.549;   6.497;  -6.460;   0.462;  -0.558;;;;;;;;;;;;;;;;;;
2010-01-26T20:08:40.683Z;0;1.7350e+01;0;     0.090;  1753.472;  37442.297; 0;  37401.215;  37442.297;  38288.227;  36534.754;125;   6.498; 129.029;;; 190.515; 352.591;  23.729;  -4.923;  -5.257;   6.546;   6.495;  -6.458;   0.459;  -0.558;;;;;;;;;;;;;;;;;;
2010-01-26T20:08:48.683Z;0;1.8370e+01;0;     0.102;  1754.116;  38531.605; 0;  38491.656;  38531.605;  39378.707;  37624.590;125;   6.497; 129.094;;; 190.579; 352.657;  23.729;  -4.923;  -5.257;   6.545;   6.494;  -6.457;   0.458;  -0.558;;;;;;;;;;;;;;;;;;
2010-01-26T20:08:56.683Z;0;1.8410e+01;0;     0.102;  1754.760;  38568.773; 0;  38528.836;  38568.773;  39416.203;  37661.441;125;   6.496; 129.159;;; 190.644; 352.724;  23.730;  -4.923;  -5.257;   6.544;   6.492;  -6.456;   0.457;  -0.557;;;;;;;;;;;;;;;;;;
2010-01-26T20:09:04.683Z;0;1.7270e+01;0;     0.109;  1755.656;  37362.066; 0;  37320.793;  37362.066;  38208.945;  36453.289;125;   6.494; 129.224;;; 190.708; 352.790;  23.731;  -4.922;  -5.257;   6.543;   6.491;  -6.454;   0.456;  -0.557;;;;;;;;;;;;;;;;;;
2010-01-26T20:09:12.682Z;0;1.8160e+01;0;     0.110;  1756.608;  38313.410; 0;  38273.121;  38313.410;  39161.500;  37404.895;125;   6.493; 129.289;;; 190.772; 352.857;  23.731;  -4.922;  -5.256;   6.541;   6.490;  -6.453;   0.454;  -0.557;;;;;;;;;;;;;;;;;;
2010-01-26T20:09:20.682Z;0;1.8630e+01;0;     0.103;  1757.588;  38795.004; 0;  38755.172;  38795.004;  39643.926;  37886.340;125;   6.492; 129.354;;; 190.836; 352.923;  23.732;  -4.922;  -5.256;   6.540;   6.489;  -6.452;   0.453;  -0.557;;;;;;;;;;;;;;;;;;
2010-01-26T20:09:28.682Z;0;1.5880e+01;0;     0.162;  1758.540;  35825.270; 0;  35782.082;  35825.270;  36672.156;  34913.613;125;   6.491; 129.419;;; 190.900; 352.990;  23.733;  -4.922;  -5.256;   6.539;   6.487;  -6.451;   0.452;  -0.557;;;;;;;;;;;;;;;;;;
2010-01-26T20:09:36.682Z;0;1.9190e+01;0;     0.102;  1759.520;  39378.184; 0;  39338.855;  39378.184;  40228.449;  38468.930;125;   6.489; 129.484;;; 190.964; 353.057;  23.733;  -4.922;  -5.256;   6.537;   6.486;  -6.450;   0.451;  -0.557;;;;;;;;;;;;;;;;;;
2010-01-26T20:09:44.682Z;0;1.9870e+01;0;     0.116;  1760.500;  40070.461; 0;  40031.770;  40070.461;  40921.695;  39161.195;125;   6.488; 129.549;;; 191.028; 353.123;  23.734;  -4.921;  -5.256;   6.536;   6.485;  -6.449;   0.450;  -0.557;;;;;;;;;;;;;;;;;;
2010-01-26T20:09:52.682Z;0;1.9990e+01;0;     0.118;  1761.452;  40189.949; 0;  40151.328;  40189.949;  41041.715;  39280.262;125;   6.487; 129.614;;; 191.092; 353.190;  23.735;  -4.921;  -5.256;   6.535;   6.484;  -6.447;   0.448;  -0.556;;;;;;;;;;;;;;;;;;
2010-01-26T20:10:00.682Z;0;1.8220e+01;0;     0.100;  1762.460;  38367.781; 0;  38327.281;  38367.781;  39218.641;  37456.180;125;   6.486; 129.679;;; 191.156; 353.256;  23.735;  -4.921;  -5.256;   6.534;   6.482;  -6.446;   0.447;  -0.556;;;;;;;;;;;;;;;;;;
2010-01-26T20:10:08.682Z;0;1.8590e+01;0;     0.100;  1763.580;  38756.012; 0;  38715.867;  38756.012;  39607.695;  37844.117;125;   6.484; 129.745;;; 191.221; 353.322;  23.736;  -4.921;  -5.256;   6.532;   6.481;  -6.445;   0.446;  -0.556;;;;;;;;;;;;;;;;;;
2010-01-26T20:10:16.682Z;0;1.8620e+01;0;     0.100;  1764.672;  38785.758; 0;  38745.594;  38785.758;  39637.973;  37873.301;125;   6.483; 129.810;;; 191.286; 353.387;  23.737;  -4.921;  -5.255;   6.531;   6.480;  -6.444;   0.445;  -0.556;;;;;;;;;;;;;;;;;;
2010-01-26T20:10:24.682Z;0;1.8340e+01;0;     0.108;  1765.792;  38495.754; 0;  38455.234;  38495.754;  39348.266;  37582.473;125;   6.482; 129.875;;; 191.350; 353.452;  23.737;  -4.920;  -5.255;   6.530;   6.478;  -6.443;   0.444;  -0.556;;;;;;;;;;;;;;;;;;
2010-01-26T20:10:32.682Z;0;1.9350e+01;0;     0.097;  1766.912;  39542.383; 0;  39502.887;  39542.383;  40396.219;  38629.309;125;   6.480; 129.940;;; 191.415; 353.518;  23.738;  -4.920;  -5.255;   6.529;   6.477;  -6.441;   0.442;  -0.556;;;;;;;;;;;;;;;;;;
2010-01-26T20:10:40.682Z;0;1.8850e+01;0;     0.106;  1768.032;  39026.363; 0;  38986.293;  39026.363;  39880.332;  38112.301;125;   6.479; 130.005;;; 191.480; 353.583;  23.739;  -4.920;  -5.255;   6.527;   6.476;  -6.440;   0.441;  -0.556;;;;;;;;;;;;;;;;;;
2010-01-26T20:10:48.682Z;0;1.8360e+01;0;     0.101;  1769.124;  38523.020; 0;  38482.375;  38523.020;  39377.102;  37607.980;125;   6.478; 130.070;;; 191.544; 353.648;  23.739;  -4.920;  -5.255;   6.526;   6.475;  -6.439;   0.440;  -0.556;;;;;;;;;;;;;;;;;;
2010-01-26T20:10:56.682Z;0;1.8930e+01;0;     0.105;  1770.244;  39108.723; 0;  39068.637;  39108.723;  39963.785;  38193.539;125;   6.477; 130.135;;; 191.609; 353.713;  23.740;  -4.920;  -5.255;   6.525;   6.473;  -6.438;   0.439;  -0.555;;;;;;;;;;;;;;;;;;
2010-01-26T20:11:04.682Z;0;1.8550e+01;0;     0.113;  1771.728;  38721.676; 0;  38681.121;  38721.676;  39577.129;  37805.398;125;   6.475; 130.200;;; 191.674; 353.778;  23.741;  -4.920;  -5.255;   6.523;   6.472;  -6.437;   0.438;  -0.555;;;;;;;;;;;;;;;;;;
2010-01-26T20:11:12.682Z;0;2.0000e+01;0;     0.103;  1773.324;  40201.758; 0;  40162.629;  40201.758;  41059.074;  39285.750;125;   6.474; 130.265;;; 191.738; 353.844;  23.741;  -4.919;  -5.255;   6.522;   6.471;  -6.436;   0.436;  -0.555;;;;;;;;;;;;;;;;;;
2010-01-26T20:11:28.681Z;0;1.7840e+01;0;     0.123;  1776.572;  37974.484; 0;  37932.906;  37974.484;  38831.590;  37055.020;125;   6.472; 130.395;;; 191.867; 353.974;  23.743;  -4.919;  -5.254;   6.520;   6.468;  -6.433;   0.434;  -0.555;;;;;;;;;;;;;;;;;;
2010-01-26T20:11:36.681Z;0;1.8980e+01;0;     0.100;  1778.196;  39159.113; 0;  39118.719;  39159.113;  40017.918;  38239.723;125;   6.470; 130.460;;; 191.932; 354.039;  23.743;  -4.919;  -5.254;   6.518;   6.467;  -6.432;   0.433;  -0.555;;;;;;;;;;;;;;;;;;
2010-01-26T20:11:44.681Z;0;1.9130e+01;0;     0.125;  1779.820;  39313.918; 0;  39273.609;  39313.918;  40173.602;  38393.781;125;   6.469; 130.525;;; 191.997; 354.104;  23.744;  -4.919;  -5.254;   6.517;   6.466;  -6.431;   0.431;  -0.555;;;;;;;;;;;;;;;;;;
2010-01-26T20:11:52.681Z;0;2.0200e+01;0;     0.109;  1781.444;  40397.258; 0;  40357.961;  40397.258;  41258.508;  39477.066;125;   6.468; 130.590;;; 192.061; 354.169;  23.745;  -4.918;  -5.254;   6.516;   6.465;  -6.430;   0.430;  -0.555;;;;;;;;;;;;;;;;;;
2010-01-26T20:12:00.681Z;0;1.8000e+01;0;     0.103;  1782.984;  38141.766; 0;  38100.070;  38141.766;  39001.988;  37219.004;125;   6.467; 130.655;;; 192.126; 354.234;  23.745;  -4.918;  -5.254;   6.514;   6.463;  -6.428;   0.429;  -0.554;;;;;;;;;;;;;;;;;;
2010-01-26T20:12:08.681Z;0;1.7670e+01;0;     0.097;  1784.272;  37789.062; 0;  37746.914;  37789.062;  38649.594;  36865.320;125;   6.465; 130.720;;; 192.191; 354.299;  23.746;  -4.918;  -5.254;   6.513;   6.462;  -6.427;   0.428;  -0.554;;;;;;;;;;;;;;;;;;
2010-01-26T20:12:16.681Z;0;1.8370e+01;0;     0.091;  1785.560;  38531.852; 0;  38490.457;  38531.852;  39393.590;  37608.031;125;   6.464; 130.785;;; 192.255; 354.364;  23.747;  -4.918;  -5.254;   6.512;   6.461;  -6.426;   0.427;  -0.554;;;;;;;;;;;;;;;;;;